SAS431 ESGG-EKCH

Flight info

Callsign SAS431
Flight time 0h 26m
Altitude 17000
Route TOPLA L996 ERNOV
Aircraft A320/M-SDE1FGHIJ1RWXYZ/LB1

Departure

Time 2026-04-30 13:36
Airport Göteborg Landvetter Airport (ESGG)

Arrival

Time 2026-04-30 14:03
Airport Copenhagen Kastrup Airport (EKCH)
Time Latitude Longitude Altitude Speed Heading
2026-04-30 12:56 57.66887 12.29425 516 ft 0 kts 116°
2026-04-30 13:27 57.66899 12.29379 516 ft 4 kts 116°
2026-04-30 13:28 57.66891 12.29273 516 ft 2 kts 26°
2026-04-30 13:28 57.66889 12.29271 516 ft 0 kts 26°
2026-04-30 13:31 57.66946 12.29323 516 ft 6 kts 25°
2026-04-30 13:32 57.67019 12.29199 516 ft 8 kts 332°
2026-04-30 13:32 57.67161 12.29292 516 ft 12 kts 26°
2026-04-30 13:33 57.67321 12.29437 516 ft 15 kts 26°
2026-04-30 13:33 57.67473 12.29575 516 ft 10 kts 25°
2026-04-30 13:34 57.67532 12.29590 516 ft 8 kts 338°
2026-04-30 13:34 57.67590 12.29208 516 ft 9 kts 275°
2026-04-30 13:35 57.67567 12.29146 516 ft 1 kts 206°
2026-04-30 13:35 57.67544 12.29128 516 ft 16 kts 204°
2026-04-30 13:36 57.66415 12.28100 512 ft 151 kts 206°
2026-04-30 13:36 57.65442 12.27218 1033 ft 155 kts 208°
2026-04-30 13:36 57.63480 12.25423 2315 ft 170 kts 208°
2026-04-30 13:37 57.62362 12.24403 2742 ft 188 kts 208°
2026-04-30 13:37 57.59626 12.22757 3690 ft 232 kts 188°
2026-04-30 13:38 57.56089 12.22379 4959 ft 269 kts 182°
2026-04-30 13:38 57.54205 12.22806 5882 ft 278 kts 169°
2026-04-30 13:38 57.50324 12.24045 7720 ft 288 kts 171°
2026-04-30 13:39 57.46166 12.25190 8886 ft 324 kts 172°
2026-04-30 13:39 57.41410 12.26446 9782 ft 359 kts 171°
2026-04-30 13:40 57.38913 12.27111 10534 ft 364 kts 171°
2026-04-30 13:40 57.36387 12.27792 11265 ft 370 kts 171°
2026-04-30 13:40 57.33812 12.28485 11970 ft 376 kts 170°
2026-04-30 13:40 57.31204 12.29188 12676 ft 382 kts 170°
2026-04-30 13:41 57.28558 12.29901 13387 ft 386 kts 170°
2026-04-30 13:41 57.25883 12.30614 14084 ft 390 kts 170°
2026-04-30 13:41 57.23179 12.31329 14791 ft 395 kts 170°
2026-04-30 13:41 57.20448 12.32054 15454 ft 398 kts 170°
2026-04-30 13:42 57.17686 12.32790 16106 ft 402 kts 170°
2026-04-30 13:42 57.14903 12.33533 16729 ft 406 kts 170°
2026-04-30 13:42 57.09265 12.35002 17411 ft 411 kts 170°
2026-04-30 13:43 57.06431 12.35702 17450 ft 411 kts 170°
2026-04-30 13:43 57.03593 12.36391 17449 ft 411 kts 170°
2026-04-30 13:43 57.00787 12.37074 17448 ft 412 kts 170°
2026-04-30 13:43 56.97949 12.37767 17451 ft 412 kts 170°
2026-04-30 13:44 56.95108 12.38465 17450 ft 411 kts 170°
2026-04-30 13:44 56.92273 12.39162 17457 ft 411 kts 170°
2026-04-30 13:44 56.89435 12.39863 17458 ft 411 kts 170°
2026-04-30 13:44 56.86603 12.40563 17459 ft 411 kts 170°
2026-04-30 13:45 56.80932 12.41966 17459 ft 411 kts 170°
2026-04-30 13:45 56.78093 12.42665 17460 ft 412 kts 170°
2026-04-30 13:45 56.75255 12.43360 17462 ft 412 kts 170°
2026-04-30 13:46 56.72413 12.44049 17465 ft 412 kts 170°
2026-04-30 13:46 56.69565 12.44734 17465 ft 412 kts 169°
2026-04-30 13:46 56.66725 12.45421 17465 ft 412 kts 169°
2026-04-30 13:46 56.63881 12.46110 17465 ft 412 kts 169°
2026-04-30 13:47 56.61037 12.46803 17467 ft 412 kts 169°
2026-04-30 13:47 56.58196 12.47495 17469 ft 412 kts 169°
2026-04-30 13:47 56.55383 12.48173 17265 ft 403 kts 169°
2026-04-30 13:47 56.52632 12.48833 16885 ft 394 kts 169°
2026-04-30 13:48 56.49941 12.49483 16510 ft 387 kts 169°
2026-04-30 13:48 56.47287 12.50126 16133 ft 380 kts 169°
2026-04-30 13:48 56.44687 12.50752 15759 ft 374 kts 169°
2026-04-30 13:48 56.42124 12.51369 15384 ft 368 kts 169°
2026-04-30 13:49 56.39600 12.51978 15010 ft 364 kts 169°
2026-04-30 13:49 56.37108 12.52579 14633 ft 359 kts 169°
2026-04-30 13:49 56.34646 12.53167 14258 ft 355 kts 169°
2026-04-30 13:49 56.32240 12.53734 13888 ft 351 kts 169°
2026-04-30 13:50 56.29829 12.54302 13512 ft 348 kts 169°
2026-04-30 13:50 56.25076 12.55435 12756 ft 342 kts 169°
2026-04-30 13:50 56.22734 12.55988 12451 ft 337 kts 169°
2026-04-30 13:51 56.20425 12.56534 12151 ft 332 kts 169°
2026-04-30 13:51 56.18147 12.57075 11853 ft 328 kts 169°
2026-04-30 13:51 56.15880 12.57390 11551 ft 326 kts 177°
2026-04-30 13:51 56.13620 12.57412 11248 ft 323 kts 178°
2026-04-30 13:52 56.11383 12.57434 10950 ft 319 kts 178°
2026-04-30 13:52 56.09176 12.57455 10655 ft 316 kts 178°
2026-04-30 13:52 56.06994 12.57475 10357 ft 312 kts 178°
2026-04-30 13:52 56.05527 12.57491 10146 ft 311 kts 178°
2026-04-30 13:53 56.03369 12.57514 9852 ft 309 kts 178°
2026-04-30 13:53 56.01255 12.57537 9555 ft 306 kts 179°
2026-04-30 13:53 55.99129 12.57555 9248 ft 305 kts 179°
2026-04-30 13:53 55.97009 12.57574 8957 ft 303 kts 179°
2026-04-30 13:54 55.94906 12.57593 8651 ft 302 kts 179°
2026-04-30 13:54 55.92814 12.57609 8350 ft 300 kts 179°
2026-04-30 13:54 55.90733 12.57629 8049 ft 298 kts 179°
2026-04-30 13:54 55.88663 12.57648 7748 ft 297 kts 180°
2026-04-30 13:55 55.86640 12.57110 7397 ft 294 kts 200°
2026-04-30 13:55 55.84786 12.55590 7043 ft 293 kts 208°
2026-04-30 13:55 55.82963 12.53967 6686 ft 293 kts 208°
2026-04-30 13:55 55.81140 12.52331 6310 ft 294 kts 208°
2026-04-30 13:56 55.79313 12.50686 5929 ft 294 kts 208°
2026-04-30 13:56 55.77513 12.49062 5556 ft 286 kts 209°
2026-04-30 13:56 55.75767 12.47492 5193 ft 278 kts 209°
2026-04-30 13:56 55.74061 12.45964 4815 ft 272 kts 209°
2026-04-30 13:57 55.72384 12.44465 4442 ft 267 kts 209°
2026-04-30 13:57 55.70741 12.42988 4070 ft 263 kts 210°
2026-04-30 13:57 55.69133 12.41544 3763 ft 255 kts 210°
2026-04-30 13:57 55.67563 12.40149 3412 ft 251 kts 208°
2026-04-30 13:58 55.65933 12.39141 3094 ft 247 kts 194°
2026-04-30 13:58 55.62606 12.39511 2603 ft 234 kts 162°
2026-04-30 13:58 55.61184 12.40846 2370 ft 230 kts 146°
2026-04-30 13:59 55.60042 12.42775 2140 ft 224 kts 134°
2026-04-30 13:59 55.59057 12.44778 1922 ft 207 kts 133°
2026-04-30 13:59 55.58170 12.46636 1766 ft 191 kts 132°
2026-04-30 13:59 55.57370 12.48364 1621 ft 172 kts 130°
2026-04-30 14:00 55.56660 12.49953 1389 ft 158 kts 126°
2026-04-30 14:00 55.56148 12.53272 1117 ft 137 kts 82°
2026-04-30 14:00 55.56303 12.54902 910 ft 133 kts 72°
2026-04-30 14:01 55.56669 12.56372 763 ft 131 kts 51°
2026-04-30 14:01 55.57321 12.57465 581 ft 129 kts 38°
2026-04-30 14:01 55.58013 12.58478 381 ft 129 kts 39°
2026-04-30 14:01 55.58684 12.59516 206 ft 130 kts 40°
2026-04-30 14:02 55.59360 12.60565 45 ft 129 kts 40°
2026-04-30 14:02 55.59968 12.61494 19 ft 96 kts 41°
2026-04-30 14:02 55.60385 12.62153 17 ft 69 kts 42°
2026-04-30 14:02 55.60727 12.62682 20 ft 62 kts 40°
2026-04-30 14:03 55.61044 12.63161 21 ft 58 kts 41°
2026-04-30 14:03 55.61334 12.63618 20 ft 54 kts 42°
2026-04-30 14:03 55.61590 12.64019 20 ft 27 kts 40°
2026-04-30 14:03 55.61697 12.64089 19 ft 17 kts 356°
2026-04-30 14:04 55.61829 12.64069 17 ft 20 kts 355°
2026-04-30 14:04 55.61947 12.64133 17 ft 19 kts 26°
2026-04-30 14:04 55.62077 12.64245 19 ft 22 kts 25°
2026-04-30 14:04 55.62205 12.64351 15 ft 14 kts 25°
2026-04-30 14:05 55.62277 12.64281 15 ft 16 kts 302°
2026-04-30 14:05 55.62351 12.64082 15 ft 23 kts 303°
2026-04-30 14:05 55.62444 12.63849 16 ft 21 kts 316°
2026-04-30 14:05 55.62564 12.63769 17 ft 17 kts
2026-04-30 14:06 55.62651 12.63818 19 ft 13 kts 30°
2026-04-30 14:06 55.62703 12.63997 17 ft 7 kts 46°
2026-04-30 14:07 55.62742 12.64043 17 ft 0 kts 33°